When you browse on this site, cookies collect data to enhance your experience and personalize the content and advertising you see.
Visit our Privacy Policy to learn more. By continuing to use the site, you agree to this use of cookies and data.
  • In Hungary
  • List of Countries
  • For 7 days
  • Water Temperature
  • Weather Map
  • News
  • Weather Widgets
  • user-avatar
    Login

    Hourly Weather Bolshoy Bohot

    Today, 25 January, Saturday

    Time Temperature Precipitation Wind Pressure Humidity
    00:00 -1°C° 0.1 mm 4 mps 725 mmHg 93%
    01:00 -1°C° 0.1 mm 4 mps 725 mmHg 92%
    02:00 -1°C° 0.1 mm 4 mps 725 mmHg 92%
    03:00 -1°C° 0.1 mm 4 mps 725 mmHg 92%
    04:00 -1°C° 0.1 mm 4 mps 725 mmHg 92%
    05:00 -1°C° 0.1 mm 4 mps 724 mmHg 93%
    06:00 -1°C° 0 mm 5 mps 724 mmHg 89%
    07:00 -1°C° 0 mm 5 mps 724 mmHg 86%
    08:00 -2°C° 0 mm 6 mps 724 mmHg 80%
    09:00 -2°C° 0.3 mm 6 mps 724 mmHg 77%
    10:00 -2°C° 0.3 mm 7 mps 724 mmHg 75%
    11:00 -2°C° 0.3 mm 7 mps 724 mmHg 73%
    12:00 -2°C° 0.2 mm 7 mps 724 mmHg 72%
    13:00 -2°C° 0.2 mm 7 mps 725 mmHg 70%
    14:00 -3°C° 0.2 mm 6 mps 725 mmHg 68%
    15:00 -3°C° 0.1 mm 6 mps 726 mmHg 70%
    16:00 -4°C° 0.1 mm 6 mps 726 mmHg 72%
    17:00 -4°C° 0.1 mm 5 mps 727 mmHg 74%
    18:00 -4°C° 0 mm 5 mps 727 mmHg 74%
    19:00 -4°C° 0 mm 6 mps 728 mmHg 75%
    20:00 -5°C° 0 mm 6 mps 728 mmHg 76%
    21:00 -5°C° 0 mm 5 mps 729 mmHg 76%
    22:00 -5°C° 0 mm 5 mps 730 mmHg 76%
    23:00 -5°C° 0 mm 5 mps 731 mmHg 76%

    Tomorrow, 26 January, Sunday

    Time Temperature Precipitation Wind Pressure Humidity
    00:00 -4°C° 0 mm 4 mps 731 mmHg 78%
    01:00 -4°C° 0 mm 4 mps 732 mmHg 80%
    02:00 -5°C° 0 mm 4 mps 732 mmHg 81%
    03:00 -5°C° 0 mm 3 mps 733 mmHg 83%
    04:00 -5°C° 0 mm 3 mps 733 mmHg 84%
    05:00 -5°C° 0 mm 3 mps 734 mmHg 85%
    06:00 -5°C° 0 mm 3 mps 734 mmHg 85%
    07:00 -5°C° 0 mm 3 mps 734 mmHg 84%
    08:00 -5°C° 0 mm 3 mps 734 mmHg 84%
    09:00 -4°C° 0 mm 3 mps 734 mmHg 80%
    10:00 -2°C° 0 mm 3 mps 733 mmHg 76%
    11:00 -3°C° 0 mm 4 mps 733 mmHg 72%
    12:00 -3°C° 0.3 mm 4 mps 733 mmHg 80%
    13:00 -2°C° 0.3 mm 5 mps 732 mmHg 87%
    14:00 -3°C° 0.3 mm 6 mps 732 mmHg 94%
    15:00 -3°C° 0.5 mm 6 mps 731 mmHg 94%
    16:00 -2°C° 0.5 mm 6 mps 731 mmHg 95%
    17:00 -1°C° 0.5 mm 6 mps 731 mmHg 95%
    18:00 0°C° 0.1 mm 5 mps 731 mmHg 93%
    19:00 0°C° 0.1 mm 5 mps 731 mmHg 92%
    20:00 +1°C° 0.1 mm 5 mps 731 mmHg 91%
    21:00 +1°C° 0 mm 5 mps 731 mmHg 91%
    22:00 +1°C° 0 mm 5 mps 731 mmHg 91%
    23:00 +1°C° 0 mm 5 mps 732 mmHg 92%

    Day after tomorrow, 27 January, Monday

    Time Temperature Precipitation Wind Pressure Humidity
    00:00 +1°C° 0 mm 4 mps 732 mmHg 92%
    01:00 +1°C° 0 mm 4 mps 732 mmHg 93%
    02:00 +1°C° 0 mm 4 mps 732 mmHg 93%
    03:00 +1°C° 0 mm 4 mps 732 mmHg 94%
    04:00 0°C° 0 mm 4 mps 732 mmHg 94%
    05:00 +1°C° 0 mm 3 mps 733 mmHg 95%
    06:00 +1°C° 0 mm 3 mps 733 mmHg 95%
    07:00 +1°C° 0 mm 3 mps 733 mmHg 96%
    08:00 +2°C° 0 mm 2 mps 733 mmHg 97%
    09:00 +2°C° 0.1 mm 2 mps 733 mmHg 97%
    10:00 +2°C° 0.1 mm 2 mps 733 mmHg 97%
    11:00 +2°C° 0.1 mm 2 mps 733 mmHg 98%
    12:00 +2°C° 0.2 mm 2 mps 733 mmHg 98%
    13:00 +3°C° 0.2 mm 1 mps 733 mmHg 98%
    14:00 +3°C° 0.2 mm 1 mps 733 mmHg 98%
    15:00 +2°C° 0.3 mm 2 mps 733 mmHg 98%
    16:00 +2°C° 0.3 mm 2 mps 733 mmHg 98%
    17:00 +2°C° 0.3 mm 2 mps 733 mmHg 98%
    18:00 +2°C° 0.2 mm 2 mps 733 mmHg 98%
    19:00 +1°C° 0.2 mm 2 mps 733 mmHg 98%
    20:00 +1°C° 0.2 mm 2 mps 733 mmHg 98%
    21:00 +1°C° 0.1 mm 2 mps 733 mmHg 98%
    22:00 +2°C° 0.1 mm 1 mps 732 mmHg 98%
    23:00 +2°C° 0.1 mm 1 mps 732 mmHg 98%

    28 January, Tuesday

    Time Temperature Precipitation Wind Pressure Humidity
    00:00 +2°C° 0.1 mm 1 mps 732 mmHg 98%
    01:00 +2°C° 0.1 mm 1 mps 732 mmHg 98%
    02:00 +2°C° 0.1 mm 1 mps 732 mmHg 98%
    03:00 +2°C° 0.2 mm 1 mps 732 mmHg 98%
    04:00 +2°C° 0.2 mm 1 mps 732 mmHg 98%
    05:00 +2°C° 0.2 mm 1 mps 732 mmHg 98%
    06:00 +2°C° 0.1 mm 1 mps 731 mmHg 98%
    07:00 +2°C° 0.1 mm 1 mps 731 mmHg 98%
    08:00 +2°C° 0.1 mm 1 mps 731 mmHg 98%
    09:00 +2°C° 0.1 mm 1 mps 731 mmHg 98%
    10:00 +2°C° 0.1 mm 1 mps 731 mmHg 97%
    11:00 +2°C° 0.1 mm 1 mps 731 mmHg 97%
    12:00 +2°C° 0 mm 1 mps 731 mmHg 96%
    13:00 +2°C° 0 mm 1 mps 731 mmHg 95%
    14:00 +1°C° 0 mm 2 mps 731 mmHg 95%
    15:00 +1°C° 0 mm 2 mps 731 mmHg 95%
    16:00 +1°C° 0 mm 2 mps 731 mmHg 95%
    17:00 +1°C° 0 mm 2 mps 730 mmHg 95%
    18:00 +1°C° 0 mm 2 mps 730 mmHg 94%
    19:00 +1°C° 0 mm 2 mps 730 mmHg 94%
    20:00 -1°C° 0 mm 3 mps 730 mmHg 94%
    21:00 0°C° 0 mm 3 mps 730 mmHg 94%
    22:00 0°C° 0 mm 3 mps 730 mmHg 94%
    23:00 0°C° 0 mm 3 mps 730 mmHg 94%

    29 January, Wednesday

    Time Temperature Precipitation Wind Pressure Humidity
    00:00 0°C° 0 mm 3 mps 729 mmHg 94%
    01:00 0°C° 0 mm 3 mps 729 mmHg 94%
    02:00 0°C° 0 mm 3 mps 729 mmHg 95%
    03:00 -1°C° 0 mm 4 mps 728 mmHg 93%
    04:00 -1°C° 0 mm 4 mps 728 mmHg 92%
    05:00 -1°C° 0 mm 4 mps 728 mmHg 91%
    06:00 -1°C° 0 mm 4 mps 728 mmHg 90%
    07:00 -1°C° 0 mm 4 mps 727 mmHg 90%
    08:00 -2°C° 0 mm 5 mps 727 mmHg 89%
    09:00 -2°C° 0.1 mm 5 mps 727 mmHg 91%
    10:00 -2°C° 0.1 mm 5 mps 727 mmHg 93%
    11:00 -2°C° 0.1 mm 5 mps 727 mmHg 95%
    12:00 -1°C° 0.2 mm 5 mps 727 mmHg 95%
    13:00 -1°C° 0.2 mm 4 mps 727 mmHg 95%
    14:00 -1°C° 0.2 mm 4 mps 726 mmHg 95%
    15:00 -1°C° 0.1 mm 4 mps 726 mmHg 95%
    16:00 -1°C° 0.1 mm 4 mps 726 mmHg 95%
    17:00 0°C° 0.1 mm 3 mps 726 mmHg 96%
    18:00 0°C° 0.1 mm 3 mps 725 mmHg 96%
    19:00 0°C° 0.1 mm 3 mps 725 mmHg 96%
    20:00 +1°C° 0.1 mm 3 mps 725 mmHg 97%
    21:00 +1°C° 0.1 mm 3 mps 724 mmHg 97%
    22:00 +1°C° 0.1 mm 3 mps 724 mmHg 96%
    23:00 0°C° 0.1 mm 4 mps 724 mmHg 96%

    30 January, Thursday

    Time Temperature Precipitation Wind Pressure Humidity
    00:00 0°C° 0.4 mm 4 mps 723 mmHg 96%
    01:00 -1°C° 0.4 mm 4 mps 723 mmHg 96%
    02:00 -1°C° 0.4 mm 4 mps 723 mmHg 96%
    03:00 0°C° 0.6 mm 3 mps 722 mmHg 96%
    04:00 0°C° 0.6 mm 3 mps 722 mmHg 96%
    05:00 +1°C° 0.6 mm 2 mps 722 mmHg 97%
    06:00 -1°C° 0.4 mm 3 mps 722 mmHg 96%
    07:00 -1°C° 0.4 mm 3 mps 722 mmHg 95%
    08:00 -3°C° 0.4 mm 4 mps 722 mmHg 94%
    09:00 -3°C° 0.1 mm 4 mps 722 mmHg 92%
    10:00 -3°C° 0.1 mm 4 mps 722 mmHg 89%
    11:00 -3°C° 0.1 mm 4 mps 722 mmHg 86%
    12:00 -1°C° 0.1 mm 3 mps 722 mmHg 88%
    13:00 -1°C° 0.1 mm 3 mps 722 mmHg 90%
    14:00 -1°C° 0.1 mm 3 mps 722 mmHg 92%
    15:00 -1°C° 0.3 mm 3 mps 722 mmHg 94%
    16:00 -1°C° 0.3 mm 3 mps 722 mmHg 95%
    17:00 -1°C° 0.3 mm 3 mps 722 mmHg 97%
    18:00 -1°C° 0.5 mm 3 mps 722 mmHg 97%
    19:00 -1°C° 0.5 mm 3 mps 722 mmHg 97%
    20:00 -2°C° 0.5 mm 4 mps 722 mmHg 96%
    21:00 -2°C° 0.3 mm 4 mps 722 mmHg 96%
    22:00 -2°C° 0.3 mm 4 mps 723 mmHg 96%
    23:00 -2°C° 0.3 mm 4 mps 723 mmHg 96%
    Show more